{"data":{"norad_id":43751,"epoch":"2026-05-25T04:38:37.058208Z","epoch_age_seconds":61350,"freshness":"FRESH","line1":"1 43751U 18097A   26145.19348447  .00000073  00000+0  45128-3 0  9995","line2":"2 43751  82.5147 236.5490 0020759  87.6073 272.7383 12.42881040339436","mean_motion":12.4288104,"eccentricity":0.0020759,"inclination_deg":82.5147,"raan_deg":236.549,"arg_perigee_deg":87.6073,"mean_anomaly_deg":272.7383,"bstar":0.00045128,"rev_number":33943,"period_min":115.85984126043,"perigee_km":1478.0710683916,"apogee_km":1510.7563243729,"semimajor_km":7872.5506963822,"source":"CELESTRAK","updated_at":"2026-05-25T13:37:55.891183Z"}}